Sitka Rocky Gutierrez current weather conditions

sailwx.info

Air temperature 2.0° C
Visibility: greater than 8.7 NM
Dewpoint 2.0° C

Last reported at 2014-Oct-24 12:53 UTC.
Time now 2014-Oct-24 14:46 UTC

Location: N 57°03' W 135°22'.
View on Google Maps.

See reports from other nearby stations

  
Tides and Currents Weather Stations Pressure Air Temp Water Temp Dewpoint Dewpoint Depression Visibility Wind Speed Wind Dir Waves Ship Positions
date/time (UTC)wind fromknots sea level pressurealtimeterstation pressurevisibilityair tempwater tempwave heightnotes
2014-Oct-24 12:53 8.7 2.0
2014-Oct-24 11:53 020 3 8.7 3.0
2014-Oct-24 10:53 8.7 4.0
2014-Oct-24 09:53 010 3 8.7 3.0
2014-Oct-24 08:53 8.7 4.0
2014-Oct-24 07:53 030 5 8.7 4.0
2014-Oct-24 06:53 8.7 4.0
2014-Oct-24 05:53 080 3 8.7 5.0
2014-Oct-24 04:53 040 3 8.7 5.0
2014-Oct-24 03:53 100 8 8.7 6.0
2014-Oct-24 02:53 100 4 8.7 6.0
2014-Oct-24 01:53 310 3 8.7 8.0
2014-Oct-24 00:53 330 5 8.7 9.0
2014-Oct-23 23:53 110 4 8.7 9.0
2014-Oct-23 22:53 110 5 8.7 9.0
2014-Oct-23 21:53 100 9 8.7 9.0
2014-Oct-23 20:53 110 7 8.7 9.0
2014-Oct-23 19:53 100 8 8.7 9.0
2014-Oct-23 18:53 110 9 8.7 9.0
2014-Oct-23 17:53 110 8 8.7 9.0
2014-Oct-23 16:53 120 10 8.7 8.0
2014-Oct-23 15:53 110 11 8.7 8.0
2014-Oct-23 14:53 110 11 8.7 9.0
2014-Oct-23 13:53 080 7 8.7 9.0
2014-Oct-23 12:53 110 10 8.7 8.0
2014-Oct-23 11:53 8.7 6.0
2014-Oct-23 10:53 8.7 6.0
2014-Oct-23 09:53 020 3 8.7 5.0
2014-Oct-23 08:53 360 3 8.7 5.0
2014-Oct-23 07:53 040 4 8.7 4.0
2014-Oct-23 06:53 8.7 5.0
2014-Oct-23 05:53 8.7 4.0
2014-Oct-23 04:53 010 3 8.7 6.0
2014-Oct-23 03:53 360 5 8.7 7.0
2014-Oct-23 02:53 100 5 8.7 7.0
2014-Oct-23 01:53 110 6 8.7 8.0
2014-Oct-23 00:53 100 9 8.7 9.0
2014-Oct-22 23:53 100 6 8.7 9.0
2014-Oct-22 22:53 120 7 8.7 9.0 Light rain.
2014-Oct-22 21:53 110 11 8.7 9.0
2014-Oct-22 20:53 130 9 8.7 9.0
2014-Oct-22 19:53 120 10 8.710.0
2014-Oct-22 18:53 160 11 6.1 8.0 Light rain.
2014-Oct-22 17:53 160 12 4.3 8.0 Light rain. Mist.
2014-Oct-22 17:03 110 16 gusting 20 8.7 8.0
2014-Oct-22 16:53 120 15 gusting 20 7.0 8.0 Light rain.
2014-Oct-22 16:30 110 17 gusting 22 8.7 7.0 Light rain.
2014-Oct-22 15:53 120 10 7.8 8.0 Light rain.
2014-Oct-22 14:53 110 16 gusting 26 8.7 8.0 Light rain.